#timestamp,LO_Frequency,Hit,StdDev 
1653966015.8,286046999.3,N
1653966035.7,286047001.2,N
1653966055.5,286046998.7,N
1653966075.3,286046999.3,N
1653966095.2,286046996.5,Y
1653966115.0,286046999.2,P
1653966115.9,286046999.2,P
1653966135.7,286046998.9,P
1653966155.6,286046999.2,Y
1653966175.4,286047000.5,P
1653966195.3,286047000.8,N
1653966215.1,286046999.8,N
1653966235.8,286047000.6,N
1653966255.7,286047000.9,N
1653966275.5,286047000.3,N
1653966295.4,286047000.2,N
1653966315.2,286047000.8,N
1653966335.0,286046998.2,Y
1653966335.9,286046998.2,P
1653966355.8,286046998.1,N
1653966375.6,286046999.3,N
1653966395.5,286046998.5,N
1653966415.3,286046999.0,N
1653966435.1,286046998.5,N
1653966455.9,286047000.4,N
1653966475.7,286047000.4,N
1653966495.5,286047002.5,N
1653966515.4,286047001.3,N
1653966535.2,286047003.6,N
1653966555.1,286047001.9,N
1653966556.0,286047001.9,N
1653966575.8,286046999.8,N
1653966595.6,286047000.7,N
1653966615.5,286047001.2,N
1653966635.3,286046998.6,N
1653966655.1,286047000.7,N
1653966675.9,286047000.5,N
1653966695.2,286047000.5,N
1653966715.1,286047000.9,N
1653966716.0,286047000.9,N
1653966735.8,286047000.2,N
1653966755.7,286047002.4,N
1653966775.5,286047000.0,N
1653966795.3,286047002.4,N
1653966815.2,286047002.6,N
1653966835.0,286047002.5,N
1653966835.9,286047002.5,N
1653966855.8,286047002.2,N
1653966875.6,286047000.0,N
1653966895.4,286047000.3,N
1653966915.3,286047000.0,N
1653966935.1,286046999.9,N
1653966955.8,286046999.9,N
1653966975.7,286046999.9,N
1653966995.5,286047002.1,N
1653967015.4,286047000.3,N
1653967035.2,286047000.6,N
1653967055.0,286047002.8,N
1653967055.9,286047002.8,N
1653967075.8,286047002.8,N
1653967095.6,286047000.2,N
1653967115.5,286046999.9,N
1653967135.3,286047000.7,N
1653967155.1,286046999.9,N
1653967175.9,286046999.9,N
1653967195.7,286046999.8,N
1653967215.5,286047002.4,N
1653967235.4,286047001.4,N
1653967255.2,286047004.4,Y
1653967275.1,286047000.9,P
1653967276.0,286047000.9,P
1653967295.8,286047000.8,P
1653967315.6,286046998.7,Y
1653967335.5,286046996.8,P
1653967355.3,286046996.7,N
1653967375.1,286046997.6,N
1653967395.9,286046997.7,N
1653967415.7,286046997.1,N
1653967435.6,286046996.5,N
1653967455.4,286046995.4,Y
1653967475.2,286046998.6,P
1653967495.1,286047000.6,N
1653967496.0,286047000.6,N
1653967515.8,286046999.9,N
1653967535.7,286047000.2,N
1653967555.5,286047002.5,N
1653967575.3,286047002.1,N
1653967595.2,286047001.3,N
1653967615.0,286047003.7,N
1653967615.9,286047003.7,N
1653967635.7,286047003.9,N
1653967655.6,286047003.6,N
1653967675.4,286047004.4,N
1653967695.3,286047004.3,N
1653967715.1,286047003.7,N
1653967735.9,286047003.6,N
1653967755.7,286047003.2,N
1653967775.5,286047003.5,N
1653967795.4,286047003.5,N
1653967815.2,286047005.4,N
1653967835.0,286047003.0,N
1653967835.9,286047003.0,N
1653967855.8,286047002.9,N
1653967875.6,286047005.4,N
1653967895.5,286047005.1,N
1653967915.3,286047002.9,N
1653967935.1,286047003.7,N
1653967955.9,286047005.5,N
1653967975.7,286047005.9,Y
1653967995.5,286046999.9,P
1653968015.4,286046999.7,N
1653968035.2,286047000.2,N
1653968055.1,286046999.7,N
1653968056.0,286046999.7,N
1653968075.8,286047002.7,N
1653968095.6,286047002.3,N
1653968115.5,286047002.2,N
1653968135.3,286047002.5,N
1653968155.1,286047002.3,N
1653968175.9,286046999.7,N
1653968195.7,286046999.7,N
1653968215.6,286047000.8,N
1653968235.4,286047001.2,N
1653968255.2,286046998.2,N
1653968275.1,286047000.5,N
1653968276.0,286047000.5,N
1653968295.8,286047000.9,N
1653968315.6,286047001.1,N
1653968335.5,286046998.2,N
1653968355.3,286046998.6,N
1653968375.2,286046998.6,N
1653968395.9,286047001.1,N
1653968415.7,286046998.1,N
1653968435.6,286046999.0,N
1653968455.4,286046998.4,N
1653968475.2,286047001.1,N
1653968495.1,286047000.8,N
1653968496.0,286047000.8,N
1653968515.8,286047000.6,N
1653968535.7,286047000.1,N
1653968555.5,286047000.1,N
1653968575.3,286047002.6,N
1653968595.2,286047002.2,N
1653968615.0,286047002.3,N
1653968615.9,286047002.3,N
1653968635.8,286047000.0,N
1653968655.6,286047002.7,N
1653968675.4,286047002.1,N
1653968695.3,286046999.8,N
1653968715.1,286046999.7,N
1653968735.8,286047002.3,N
1653968755.7,286047002.4,N
1653968775.5,286047002.2,N
1653968795.4,286047001.8,N
1653968815.2,286047002.1,N
1653968835.0,286047001.7,N
1653968835.9,286047001.7,N
1653968855.8,286047002.0,N
1653968875.6,286047002.8,N
1653968895.4,286047002.8,N
1653968915.3,286047001.0,N
1653968935.1,286047000.8,N
1653968955.9,286047000.8,N
1653968975.7,286046998.1,N
1653968995.5,286047000.2,N
1653969015.4,286047000.1,N
1653969035.2,286047000.1,N
1653969055.0,286047002.4,N
1653969055.9,286047002.4,N
1653969075.8,286047002.1,N
1653969095.6,286047002.4,N
1653969115.5,286046999.8,N
1653969135.3,286047000.3,N
1653969155.1,286047000.3,N
1653969175.9,286046999.9,N
1653969195.7,286047002.6,N
1653969215.6,286047002.0,N
1653969235.4,286047002.2,N
1653969255.2,286047001.9,N
1653969275.1,286047001.6,N
1653969276.0,286047001.6,N
1653969295.8,286047001.8,N
1653969315.7,286047000.2,N
1653969335.5,286047000.1,N
1653969355.3,286047001.4,N
1653969375.2,286047004.4,Y
1653969395.0,286047002.1,P
1653969395.9,286047002.1,P
1653969415.7,286047001.9,P
1653969435.6,286047002.5,Y
1653969455.4,286047000.7,P
1653969475.3,286047001.1,N
1653969495.1,286046999.1,N
1653969515.8,286046998.5,N
1653969535.7,286047001.1,N
1653969555.5,286047000.8,N
1653969575.3,286047000.8,N
1653969595.2,286047000.4,N
